Regional Weather Roundup
Issued by NWS

Home | Current Version | Previous Version | Text Only | Print | Product List | Glossary On
Versions: 1 2 3 4 5 6 7 8 9 10 11 12 13 14 15 16 17 18 19 20 21 22 23 24 25 26 27 28 29 30 31 32 33 34 35 36 37 38 39 40 41 42 43 44 45 46 47 48 49 50
000
ASUS42 KTBW 271618
RWRFL
FLORIDA REGIONAL WEATHER ROUNDUP
NATIONAL WEATHER SERVICE TAMPA BAY RUSKIN FL
1200 PM EDT SAT MAY 27 2017

NOTE: "FAIR" INDICATES FEW OR NO CLOUDS BELOW 12,000 FEET WITH NO
SIGNIFICANT WEATHER AND/OR OBSTRUCTIONS TO VISIBILITY.

FLZ001>010-012>015-112-114-115-271700-
PANHANDLE FLORIDA

CITY           SKY/WX    TMP DP  RH WIND       PRES   REMARKS
PENSACOLA      PTSUNNY   82  72  71 S5        30.09S
PENSACOLA NAS  PTSUNNY   83  72  69 SW8       30.09S
MILTON NAS     PTSUNNY   81  71  71 VRB5      30.10
CRESTVIEW      PTSUNNY   82  67  60 SW7       30.12S
DUKE FIELD     PTSUNNY   81  68  63 W3        30.10R
VALPARAISO     PTSUNNY   81  70  68 SW6       30.10R
MARY ESTHER    PTSUNNY   82  70  65 SW9       30.09
PANAMA CITY    FAIR      83  68  60 W9G17     30.10R
TYNDALL AFB    SUNNY     81  68  64 W7        30.11S
APALACHICOLA   SUNNY     83  69  62 W10       30.10S

STATION/POSITION SKY/WX   TEMP    WIND        PRES    WAVE   SWELL
                          AIR SEA DIR/SP/G            HT/PER HT/PER
                          (F)     (DEG/KT/KT) (MB)    (FT/S) (FT/S)
30.1N   87.6W              77 78  170/  6/  6 1019.0R   2/ 5   2/ 5
29.2N   88.2W              79 78  170/  4/  4 1019.1
28.8N   86.0W              80 79     CALM     1019.4R   1/ 4
PANAMA CITY BEAC           77 79  240/  5/  5 1019.9S
TOWER C                    76     290/  7/  8 1020.4R
28.5N   84.5W              75 79  310/  2/  4 1019.7R   1/ 8   2/ 8

$$
FLZ011-016>038-118-127-128-134-139-239-271700-
NORTH FLORIDA

CITY           SKY/WX    TMP DP  RH WIND       PRES   REMARKS
MARIANNA       SUNNY     81  66  60 W9G17     30.10S
TALLAHASSEE    MOSUNNY   83  64  52 SW7       30.09F
PERRY          SUNNY     83  60  45 W8        30.10S
CROSS CITY     SUNNY     82  63  51 SW8       30.09F
LAKE CITY      FAIR      82  61  47 W8        30.09F
GAINESVILLE    SUNNY     84  61  45 MISG      30.09S
WILLISTON      SUNNY     86  63  45 VRB5      30.09S
PALATKA        FAIR      84  57  39 CALM      30.08S
MAYPORT NAS    SUNNY     85  63  47 VRB6      30.07S
JACKSONVILLE   MOSUNNY   84  61  45 S5        30.06F
JAX NAS        MOSUNNY   83  65  54 SE8       30.08F
FERNANDINA BEA FAIR      88  63  42 S9        30.06S
ST AUGUSTINE   SUNNY     83  67  58 E9        30.08F
PALM COAST     FAIR      85  57  38 W3        30.07S

STATION/POSITION SKY/WX   TEMP    WIND        PRES    WAVE   SWELL
                          AIR SEA DIR/SP/G            HT/PER HT/PER
                          (F)     (DEG/KT/KT) (MB)    (FT/S) (FT/S)
SHELL POINT      NOT AVBL
KEATON BEACH               74     240/  6/  6 1019.4R
CEDAR KEY                  77     240/  6/  8 1020.0R
FERNANDINA                 85 78  240/  5/  7 1018.9S
30.7N   81.3W                 79                N/A     2/ 8
MAYPORT                    81 78  240/  4/  6 1018.7F
31.4N   80.9W              76 78  230/  8/ 10 1017.5R   2/ 8   2/ 8
ST AUGUSTINE               76 77   80/  6/  6 1019.5R

$$
FLZ040-043>046-052-053-057-058-063-144-271700-
INTERIOR CENTRAL FLORIDA

CITY           SKY/WX    TMP DP  RH WIND       PRES   REMARKS
OCALA          SUNNY     85  59  41 CALM      30.10S
THE VILLAGES     N/A     84  63  48 CALM      29.99F
LEESBURG       SUNNY     83  61  47 VRB3      30.10S
SANFORD        SUNNY     84  57  39 VRB3      30.08F
ORLANDO EXEC   SUNNY     86  58  38 VRB3      30.09S
ORLANDO INTL   SUNNY     83  53  35 VRB5      30.08F
KISSIMMEE      SUNNY     84  59  42 VRB6      30.10S
WINTER HAVEN   SUNNY     85  49  28 VRB5      30.11S
LAKELAND       SUNNY     82  55  39 CALM      30.11S
BARTOW         SUNNY     84  45  24 W8        30.10F
OKEECHOBEE     SUNNY     86  63  45 SW3       30.09S

$$
FLZ041-047-054-059-064-141-147-271700-
EAST CENTRAL FLORIDA

CITY           SKY/WX    TMP DP  RH WIND       PRES   REMARKS
ORMOND BEACH   SUNNY     84  64  51 NE6       30.07F
DAYTONA BEACH  SUNNY     84  62  47 CALM      30.08F
DELAND         SUNNY     86  59  39 CALM      30.07F
NEW SMYRNA BEA SUNNY     82  64  54 E6        30.09F
JFK SPACE CTR  SUNNY     85  64  47 NW5       30.07S
TITUSVILLE     SUNNY     86  70  58 E10       30.08F
CAPE CANAVERAL PTSUNNY   85  71  63 E7        30.06F
PATRICK AFB    SUNNY     79  71  76 E9        30.08S
MELBOURNE      SUNNY     83  71  67 E8        30.07F
VERO BEACH     SUNNY     89  65  44 W5        30.08S
FT PIERCE      SUNNY     90  70  51 W8        30.08S HX  95

STATION/POSITION SKY/WX   TEMP    WIND        PRES    WAVE   SWELL
                          AIR SEA DIR/SP/G            HT/PER HT/PER
                          (F)     (DEG/KT/KT) (MB)    (FT/S) (FT/S)
28.5N   80.2W              76 76  320/  6/  8 1019.8
28.9N   78.5W              78 79  220/  2/  4 1018.5F   2/ 7   2/ 7
TRIDENT PIER               80 77  140/  5/  7 1020.2R
28.4N   80.5W                 77                N/A     1/ 8
27.5N   80.2W                 73                N/A     1/ 8

$$
FLZ050-056-061-142-242-148-248-149-249-151-251-155-255-
160-260-271700-
WEST CENTRAL FLORIDA

CITY           SKY/WX    TMP DP  RH WIND       PRES   REMARKS
CRYSTAL RIVER  FAIR      84  63  48 W3        30.10S
INVERNESS      FAIR      82  63  51 E3        30.10S
BROOKSVILLE    SUNNY     85  59  41 CALM      30.11S
CLEARWATER AIR FAIR      81  61  50 NW8       30.11R
ST PETE CLEARW SUNNY     82  63  52 N7        30.10S
TAMPA INTL     SUNNY     83  64  52 SW10      30.11S
TAMPA EXEC     SUNNY     84  59  42 CALM      30.11S
PLANT CITY     SUNNY     86  59  39 W5        30.12S
MACDILL AFB    MOSUNNY   83  65  52 N3        30.10S
PETER O KNIGHT MOSUNNY   84  66  54 S6        30.11S
ST PETERSBURG  SUNNY     81  64  56 E6        30.09S
SARASOTA       SUNNY     81  64  56 SW9       30.09S
VENICE         FAIR      82  66  57 W8        30.11S

STATION/POSITION SKY/WX   TEMP    WIND        PRES    WAVE   SWELL
                          AIR SEA DIR/SP/G            HT/PER HT/PER
                          (F)     (DEG/KT/KT) (MB)    (FT/S) (FT/S)
27.3N   84.2W                 80                N/A     2/ 8
CLEARWATER BEACH           77 81  310/  6/  7 1020.0R
MIDDLE TAMPA BAY           76      90/  4/  5 1019.8F
VENICE                     79 82  310/  5/  6 1019.1R

$$
FLZ066-069-070-075>078-162-262-165-265-271700-
SOUTHWEST FLORIDA AND KEYS

CITY           SKY/WX    TMP DP  RH WIND       PRES   REMARKS
PUNTA GORDA    SUNNY     86  65  49 MISG      30.11S
FT MYERS       SUNNY     88  68  51 NW8       30.08S
SOUTHWEST INTL SUNNY     87  68  52 W8        30.08F
NAPLES         SUNNY     88  69  53 W7        30.08S
MARCO ISLAND   SUNNY     90  70  51 W3        30.08S HX  95
IMMOKALEE      FAIR      88  68  51 VRB5G12   30.09S
MARATHON       SUNNY     90  79  70 VRB5      30.07S HX 106
KEY WEST NAS   MOSUNNY   88  78  72 S9        30.07S HX 101
KEY WEST INTL  SUNNY     86  77  74 S6        30.08S HX  97

STATION/POSITION SKY/WX   TEMP    WIND        PRES    WAVE   SWELL
                          AIR SEA DIR/SP/G            HT/PER HT/PER
                          (F)     (DEG/KT/KT) (MB)    (FT/S) (FT/S)
NAPLES                        84  310/  5/  6 1018.6S
DRY TORTUGAS               83     110/  5/  6 1018.6F
SAND KEY                   83     180/  2/  3 1019.1R
LONG KEY                   85 87  200/  3/  4 1018.4F
MOLASSES REEF              83 83   CALM  /  1 1018.7F

$$
FLZ067-068-071>074-168-172>174-271700-
SOUTHEAST FLORIDA

CITY           SKY/WX    TMP DP  RH WIND       PRES   REMARKS
W PALM BEACH   PTSUNNY   87  72  60 VRB5      30.08S
BOCA RATON     MOSUNNY   88  79  74 E6        30.07F HX 102
FT LAUDER-EXEC MOSUNNY   93  72  50 W6        30.06F HX 101
FT LAUDERDALE  MOSUNNY   91  75  59 S5        30.05F HX 101
POMPANO BEACH  MOSUNNY   87  78  74 E10       30.07S HX 100
PEMBROKE PINES MOSUNNY   91  72  53 W8        30.08S HX  98
OPA LOCKA      MOSUNNY   91  74  57 VRB3      30.07S HX 100
MIAMI          MOSUNNY   93  72  50 NW6       30.06F HX 101
WEST KENDALL   MOSUNNY   88  75  65 CALM      30.07S HX  97
HOMESTEAD      PTSUNNY   90  78  67 E6        30.06S HX 105

STATION/POSITION SKY/WX   TEMP    WIND        PRES    WAVE   SWELL
                          AIR SEA DIR/SP/G            HT/PER HT/PER
                          (F)     (DEG/KT/KT) (MB)    (FT/S) (FT/S)
PORT EVERGLADES            86     110/  4/  7 1018.2S
VIRGINIA KEY               86 85  160/  3/  5 1017.6F
LAKE WORTH                 82 82              1019.3F
FOWEY ROCKS                86 82  240/  4/  4 1019.0S
SETTLEMENT POINT           82     220/  4/  5 1018.8S

$$




USA.gov is the U.S. government's official web portal to all federal, state and local government web resources and services.